Fresno, CA

7:06 PM PST on February 07, 2016 (GMT -0800)
Fresno Yosemite International

Weather History for KFAT - March, 2014

Change the Weather History Date:

Thursday, March 27, 2014

  Actual Average Record
Temperature  
Mean Temperature 58 °F 58 °F  
Max Temperature 69 °F 69 °F 91 °F (2015)
Min Temperature 47 °F 47 °F 31 °F (1972)
Degree Days  
Heating Degree Days 7    
Month to date heating degree days 69  
Since 1 July heating degree days 1414  
Cooling Degree Days 0    
Month to date cooling degree days 12  
Year to date cooling degree days 12  
Growing Degree Days 8 (Base 50)    
Moisture  
Dew Point 43 °F    
Average Humidity 63    
Maximum Humidity 93    
Minimum Humidity 32    
Precipitation  
Precipitation 0.00 in 0.05 in 1.30 in (1883)
Month to date precipitation 0.19 1.82  
Year to date precipitation 2.87 6.04  
Since 1 July precipitation 3.60  
Snow  
Snow 0.00 in - - ()
Month to date snowfall 0.0  
Since 1 July snowfall 0.0  
Snow Depth 0.00 in    
Sea Level Pressure  
Sea Level Pressure 30.06 in    
Wind  
Wind Speed 7 mph (NW)    
Max Wind Speed 16 mph    
Max Gust Speed 20 mph    
Visibility 10 miles    
Events      
T = Trace of Precipitation, MM = Missing Value Source: NWS Daily Summary

Daily Weather History Graph

Daily Weather History Graph

Search for Another Location

Airport or City:

Trip Planner

Search our weather history database for the weather conditions in past years. The results will help you decide how hot, cold, wet, or windy it might be!

Date:

Astronomy

Mar. 27, 2014 Rise Set
Actual Time 6:51 AM PDT 7:16 PM PDT
Civil Twilight 6:26 AM PDT 7:42 PM PDT
Nautical Twilight 5:55 AM PDT 8:13 PM PDT
Astronomical Twilight 5:24 AM PDT 8:44 PM PDT
Moon 4:41 AM PDT (3/27) 4:14 PM PDT (3/27)
Length of Visible Light 13h 16m
Length of Day
12h 24m
Waning Crescent, 12% of the Moon is Illuminated
Mar 27
Waning Crescent
Mar 30
New
Apr 7
First Quarter
Apr 15
Full
Apr 22
Last Quarter

Hourly Weather History & Observations

Time (PDT) Temp. Dew Point Humidity Pressure Visibility Wind Dir Wind Speed Gust Speed Precip Events Conditions
12:53 AM 52.0 °F 48.9 °F 89% 30.00 in 10.0 mi Calm Calm - N/A   Scattered Clouds
1:53 AM 52.0 °F 48.9 °F 89% 30.00 in 10.0 mi Calm Calm - N/A   Clear
2:53 AM 50.0 °F 48.0 °F 93% 30.00 in 9.0 mi NNW 4.6 mph - N/A   Clear
3:53 AM 48.9 °F 46.0 °F 90% 30.00 in 10.0 mi NNW 5.8 mph - N/A   Clear
4:53 AM 48.9 °F 45.0 °F 86% 30.00 in 10.0 mi NNW 4.6 mph - N/A   Clear
5:53 AM 48.9 °F 45.0 °F 86% 30.01 in 10.0 mi Calm Calm - N/A   Clear
6:53 AM 48.0 °F 44.1 °F 86% 30.03 in 10.0 mi Calm Calm - N/A   Partly Cloudy
7:53 AM 51.1 °F 46.0 °F 83% 30.06 in 10.0 mi North 4.6 mph - N/A   Mostly Cloudy
8:53 AM 53.1 °F 46.0 °F 77% 30.07 in 10.0 mi NNW 4.6 mph - N/A   Overcast
9:53 AM 57.0 °F 46.0 °F 67% 30.09 in 10.0 mi NW 9.2 mph - N/A   Overcast
10:53 AM 59.0 °F 46.0 °F 62% 30.09 in 10.0 mi NW 9.2 mph - N/A   Overcast
11:53 AM 62.1 °F 45.0 °F 53% 30.09 in 10.0 mi NW 9.2 mph - N/A   Mostly Cloudy
12:53 PM 64.0 °F 43.0 °F 46% 30.09 in 10.0 mi WNW 11.5 mph 17.3 mph N/A   Scattered Clouds
1:53 PM 66.0 °F 37.0 °F 34% 30.08 in 10.0 mi NW 12.7 mph - N/A   Scattered Clouds
2:53 PM 66.9 °F 37.0 °F 33% 30.06 in 10.0 mi West 11.5 mph - N/A   Scattered Clouds
3:53 PM 66.0 °F 37.0 °F 34% 30.06 in 10.0 mi NW 10.4 mph - N/A   Scattered Clouds
4:53 PM 68.0 °F 37.9 °F 33% 30.05 in 10.0 mi NW 8.1 mph - N/A   Scattered Clouds
5:53 PM 66.9 °F 37.9 °F 34% 30.05 in 10.0 mi West 10.4 mph - N/A   Partly Cloudy
6:53 PM 64.9 °F 37.9 °F 37% 30.05 in 10.0 mi WNW 11.5 mph - N/A   Partly Cloudy
7:53 PM 63.0 °F 39.0 °F 41% 30.07 in 10.0 mi NW 10.4 mph - N/A   Partly Cloudy
8:53 PM 61.0 °F 39.9 °F 46% 30.09 in 10.0 mi NNW 8.1 mph - N/A   Clear
9:53 PM 59.0 °F 39.9 °F 49% 30.10 in 10.0 mi NNW 9.2 mph - N/A   Clear
10:53 PM 57.9 °F 42.1 °F 56% 30.10 in 10.0 mi NNW 8.1 mph - N/A   Clear
11:53 PM 55.9 °F 42.1 °F 60% 30.12 in 10.0 mi NW 5.8 mph - N/A   Scattered Clouds